Location: Sungai Laei
(2.6000°N, 113.7167°E)
Time: 13:40:14
(UTC+00:00)

Lacrosse 4 Rocket - Visible Passes

Search period start: 26 September 2022 00:00
Search period end: 06 October 2022 00:00
Orbit: 538 x 614 km, 68.0° (Epoch: 25 September)

Date Brightness Start Highest point End Pass type
(mag) Time Alt. Az. Time Alt. Az. Time Alt. Az.
28 Sep 3.4 11:13:59 10° SSE 11:14:33 12° SE 11:14:33 12° SE visible
29 Sep 2.1 11:16:28 10° S 11:19:49 29° ESE 11:19:49 29° ESE visible
30 Sep 1.3 11:19:31 10° S 11:23:26 56° ESE 11:25:20 28° NE visible
01 Oct 1.4 11:22:55 10° SSW 11:26:54 74° WNW 11:30:54 10° NNE visible
02 Oct 2.8 11:26:39 10° SW 11:30:22 37° WNW 11:34:06 10° N visible
02 Oct 4.6 21:50:01 10° NE 21:52:24 14° ENE 21:54:46 10° ESE visible
03 Oct 3.9 11:30:50 10° WSW 11:33:51 20° WNW 11:36:52 10° NNW visible
03 Oct 4.2 21:52:16 10° NNE 21:55:54 25° ENE 21:59:31 10° SE visible
04 Oct 4.6 11:36:06 10° W 11:37:21 11° WNW 11:38:35 10° NW visible
